[[{"header":{"parameterUnit":"m.s-1","parameterCategory":1,"la1":30.2991,"la2":30.254,"lo1":-89.0895,"lo2":-89.0444,"dy":0.0017,"dx":0.0017,"nx":28,"ny":28,"refTime":"2025-08-26T03:00:00:Z","depth":0,"parameterNumber":2,"parameterNumberName":"U-component_of_WINDS"},"data":[0,0,0,0,0,0,0,0,0,0,0,0,0,0,0,0,0,0,0,0,0,0,0,0,0,0,0,0,0,0,0,0,0,0,0,0,0,0,0,0,0,0,0,0,0,0,0,0,0,0,0,0,0,0,0,0,0,0,-0.0725,-0.0724,0,-0.0628,-0.0627,-0.0626,-0.0569,-0.0568,-0.0568,-0.0568,-0.0467,-0.0465,-0.0463,0,0,0,0,0,0,0,0,0,0,0,0,0,-0.0863,-0.0861,-0.0726,-0.0724,-0.0723,-0.0628,-0.0627,-0.0625,-0.0569,-0.0568,-0.0568,-0.0568,-0.0468,-0.0465,-0.0462,0,0,0,0,0,0,0,0,0,0,0,0,0,-0.0788,-0.086,-0.0726,-0.0683,-0.0679,-0.0628,-0.0627,-0.0625,-0.0569,-0.0568,-0.0568,-0.0568,-0.0469,-0.0466,-0.0462,-0.0446,0,0,-0.0451,-0.0449,0,0,0,0,0,0,0,0,-0.0793,-0.0783,-0.0691,-0.0686,-0.0681,-0.061,-0.0638,-0.0565,-0.0569,-0.061,-0.0568,-0.0567,-0.0515,-0.0508,-0.049,-0.0442,-0.0437,-0.045,-0.0448,-0.0447,-0.0446,0,0,0,0,0,0,0,-0.0798,-0.0787,-0.0687,-0.069,-0.0683,-0.0669,-0.0658,-0.0624,-0.0566,-0.0607,-0.0602,-0.0592,-0.0512,-0.0494,-0.0487,-0.0436,-0.0451,-0.0447,-0.0445,-0.0444,-0.0372,-0.0372,0,0,0,0,0,0,-0.081,-0.0792,-0.069,-0.0684,-0.0737,-0.0667,-0.0655,-0.0633,-0.0566,-0.0556,-0.0592,-0.0589,-0.05,-0.0492,-0.0484,-0.0462,-0.0447,-0.0443,-0.0441,-0.0372,-0.0372,-0.0372,0,0,0,0,0,0,-0.0813,-0.0801,-0.0694,-0.0737,-0.0722,-0.0665,-0.0641,-0.0631,-0.0613,-0.0555,-0.0544,-0.0584,-0.05,-0.0489,-0.0457,-0.0458,-0.0442,-0.0438,-0.0371,-0.0372,-0.0372,-0.0419,0,0,0,0,0,0,-0.0817,-0.0803,-0.0796,-0.0737,-0.072,-0.0668,-0.0641,-0.063,-0.0607,-0.0602,-0.0545,-0.0535,-0.0499,-0.0462,-0.0453,-0.0453,-0.0435,-0.0371,-0.0372,-0.0372,-0.0417,-0.0421,-0.0425,0,0,0,0,0,-0.0822,-0.0813,-0.0796,-0.0784,-0.071,-0.0669,-0.0659,-0.0618,-0.0607,-0.06,-0.0563,-0.0536,-0.046,-0.046,-0.0448,-0.0447,-0.0371,-0.0371,-0.0372,-0.0416,-0.0421,-0.0425,0,0,0,0,0,0,-0.0872,-0.0804,-0.0785,-0.0755,-0.0719,-0.0659,-0.0649,-0.0624,-0.0589,-0.0586,-0.0536,-0.0524,-0.0497,-0.0469,-0.047,-0.043,-0.0412,-0.0411,-0.0449,-0.0453,-0.0457,-0.0465,-0.0432,0,0,0,0,0,-0.088,-0.0852,-0.0794,-0.0773,-0.0756,-0.0706,-0.0686,-0.0658,-0.0617,-0.0601,-0.0562,-0.0524,-0.0491,-0.047,-0.0437,-0.0413,-0.0401,-0.0407,-0.0411,-0.0414,-0.0413,-0.0401,-0.0403,-0.0375,-0.0375,-0.0375,0,0,-0.0896,-0.0855,-0.084,-0.0783,-0.075,-0.0723,-0.0693,-0.0664,-0.0644,-0.0597,-0.0565,-0.0535,-0.0489,-0.0461,-0.0447,-0.0437,-0.0419,-0.0415,-0.0418,-0.0415,-0.0402,-0.0404,-0.0407,-0.0375,-0.0375,-0.0375,0,0,-0.091,-0.0876,-0.0856,-0.0825,-0.0777,-0.0744,-0.074,-0.0684,-0.0663,-0.063,-0.0595,-0.057,-0.0514,-0.0483,-0.046,-0.0466,-0.044,-0.0456,-0.0475,-0.0464,-0.0466,-0.0468,-0.0471,-0.0473,-0.0456,-0.0456,-0.0456,0,-0.0935,-0.0892,-0.0849,-0.0823,-0.08,-0.0757,-0.0737,-0.0709,-0.0653,-0.0638,-0.0627,-0.0558,-0.0524,-0.049,-0.0491,-0.0473,-0.0468,-0.0463,-0.0469,-0.047,-0.0471,-0.0474,-0.0476,-0.0458,-0.0458,-0.0458,-0.0457,0,-0.0926,-0.0897,-0.0887,-0.0835,-0.081,-0.0788,-0.0742,-0.0722,-0.0697,-0.0665,-0.0633,-0.0591,-0.055,-0.0539,-0.0513,-0.0502,-0.0497,-0.0479,-0.046,-0.0477,-0.0479,-0.048,-0.0461,-0.0461,-0.046,-0.0459,0,0,-0.0968,-0.0894,-0.0891,-0.0868,-0.0813,-0.079,-0.0766,-0.0726,-0.0711,-0.0674,-0.0654,-0.0609,-0.0592,-0.0566,-0.0536,-0.0526,-0.0535,-0.0509,-0.0507,-0.0517,-0.0522,-0.0538,-0.054,-0.0518,-0.0518,-0.0518,-0.0527,0,-0.0976,-0.0931,-0.0892,-0.0862,-0.0836,-0.0796,-0.0775,-0.074,-0.071,-0.0684,-0.0651,-0.0621,-0.06,-0.0584,-0.0572,-0.0537,-0.0536,-0.0535,-0.05,-0.0499,-0.0514,-0.054,-0.0556,-0.0566,-0.0527,-0.0527,-0.0527,0,-0.0977,-0.0944,-0.0911,-0.0861,-0.0849,-0.0831,-0.0792,-0.0767,-0.0727,-0.0706,-0.0679,-0.0648,-0.0623,-0.0607,-0.0571,-0.0572,-0.0555,-0.0536,-0.0535,-0.0531,-0.0515,-0.0538,-0.0568,-0.057,-0.0528,-0.0528,-0.0528,0,-0.1014,-0.096,-0.0934,-0.0915,-0.0855,-0.0844,-0.0819,-0.0778,-0.0757,-0.0723,-0.071,-0.0673,-0.0653,-0.0626,-0.0588,-0.0579,-0.0557,-0.0537,-0.054,-0.0541,-0.0537,-0.0538,-0.0567,-0.0525,-0.0525,-0.0525,-0.0525,0,-0.1026,-0.1008,-0.0949,-0.0934,-0.0913,-0.0869,-0.085,-0.0821,-0.0786,-0.0765,-0.0727,-0.0708,-0.0657,-0.0632,-0.0602,-0.0578,-0.0569,-0.0552,-0.0545,-0.0556,-0.0559,-0.0545,-0.0544,-0.0525,-0.0525,-0.0525,-0.0525,0,-0.1063,-0.1022,-0.0992,-0.0939,-0.0925,-0.0912,-0.0867,-0.0851,-0.082,-0.0793,-0.0784,-0.0736,-0.0705,-0.0664,-0.0619,-0.0599,-0.058,-0.0566,-0.0594,-0.0589,-0.0595,-0.0596,-0.0616,-0.0618,-0.0574,-0.0575,-0.0575,0,-0.1074,-0.1059,-0.1005,-0.0988,-0.0965,-0.0938,-0.0917,-0.0874,-0.0854,-0.0808,-0.0798,-0.0764,-0.0735,-0.0687,-0.0648,-0.0615,-0.0602,-0.0611,-0.0596,-0.0609,-0.0604,-0.0606,-0.0605,-0.0615,-0.0616,-0.0616,-0.0617,0,-0.1098,-0.108,-0.1051,-0.1016,-0.0992,-0.0962,-0.0931,-0.0919,-0.087,-0.0849,-0.0818,-0.0795,-0.0751,-0.0719,-0.068,-0.0655,-0.0628,-0.0622,-0.0621,-0.0633,-0.0651,-0.0643,-0.0605,-0.0622,-0.0621,-0.0621,-0.0621,-0.062,-0.1123,-0.1109,-0.107,-0.104,-0.1012,-0.0984,-0.0967,-0.0934,-0.0907,-0.0868,-0.0845,-0.0815,-0.0777,-0.0723,-0.0699,-0.0675,-0.0664,-0.0663,-0.0662,-0.0663,-0.0668,-0.0654,-0.0668,-0.0667,-0.0667,-0.0667,-0.0667,0,-0.1147,-0.112,-0.1093,-0.1051,-0.1028,-0.1005,-0.097,-0.0952,-0.0926,-0.0893,-0.0866,-0.0831,-0.08,-0.0759,-0.0726,-0.0715,-0.0702,-0.0708,-0.0709,-0.0704,-0.0678,-0.0683,-0.0719,-0.0719,-0.0719,-0.0719,-0.0719,-0.0719,-0.1157,-0.1133,-0.111,-0.1073,-0.1046,-0.1017,-0.0999,-0.0973,-0.0947,-0.091,-0.0884,-0.0858,-0.0823,-0.0787,-0.0758,-0.0747,-0.0737,-0.0747,-0.0732,-0.071,-0.0705,-0.0701,-0.0705,-0.0744,-0.0745,-0.076,-0.076,-0.076]},{"header":{"parameterUnit":"m.s-1","parameterCategory":1,"la1":30.2991,"la2":30.254,"lo1":-89.0895,"lo2":-89.0444,"dy":0.0017,"dx":0.0017,"nx":28,"ny":28,"refTime":"2025-08-26T03:00:00:Z","depth":0,"parameterNumber":3,"parameterNumberName":"V-component_of_WINDS"},"data":[0,0,0,0,0,0,0,0,0,0,0,0,0,0,0,0,0,0,0,0,0,0,0,0,0,0,0,0,0,0,0,0,0,0,0,0,0,0,0,0,0,0,0,0,0,0,0,0,0,0,0,0,0,0,0,0,0,0,2.0326,2.0326,0,2.0299,2.0299,2.0299,2.0259,2.0258,2.0257,2.0257,2.023,2.0229,2.0229,0,0,0,0,0,0,0,0,0,0,0,0,0,2.0343,2.0343,2.0326,2.0326,2.0326,2.0299,2.0299,2.0299,2.0259,2.0258,2.0257,2.0256,2.023,2.0229,2.0229,0,0,0,0,0,0,0,0,0,0,0,0,0,2.0328,2.0343,2.0326,2.0303,2.03,2.03,2.0299,2.0299,2.0259,2.0258,2.0257,2.0256,2.023,2.0229,2.0229,2.025,0,0,2.0229,2.0229,0,0,0,0,0,0,0,0,2.0329,2.0328,2.0307,2.0304,2.0302,2.0281,2.0295,2.0282,2.0259,2.0275,2.0257,2.0256,2.0248,2.0246,2.0243,2.0248,2.0247,2.0229,2.0229,2.0229,2.0229,0,0,0,0,0,0,0,2.033,2.0329,2.0316,2.0306,2.0303,2.0293,2.029,2.0292,2.0267,2.0273,2.027,2.0268,2.0246,2.0243,2.0242,2.0247,2.0229,2.0229,2.0229,2.0229,2.0265,2.0266,0,0,0,0,0,0,2.0335,2.033,2.0317,2.0315,2.0313,2.0294,2.029,2.0289,2.0267,2.0263,2.0269,2.0266,2.0244,2.0242,2.0241,2.0261,2.0229,2.0229,2.0229,2.0264,2.0265,2.0267,0,0,0,0,0,0,2.0335,2.0334,2.0318,2.0321,2.0319,2.0295,2.0294,2.0289,2.0286,2.0264,2.0259,2.027,2.0243,2.0241,2.0247,2.026,2.0229,2.0229,2.0263,2.0265,2.0266,2.0303,0,0,0,0,0,0,2.0336,2.0334,2.0342,2.0322,2.0319,2.0324,2.0295,2.0289,2.0286,2.0282,2.0264,2.026,2.0242,2.0248,2.0247,2.0259,2.0229,2.0262,2.0264,2.0265,2.0301,2.0306,2.031,0,0,0,0,0,2.0337,2.0354,2.0342,2.0341,2.0327,2.0325,2.0323,2.0302,2.0287,2.0294,2.028,2.0261,2.0259,2.0249,2.0248,2.026,2.0261,2.0263,2.0265,2.0299,2.0305,2.031,0,0,0,0,0,0,2.0376,2.0351,2.0338,2.0349,2.034,2.0318,2.0326,2.031,2.0304,2.0301,2.0275,2.0272,2.028,2.0271,2.026,2.0277,2.0257,2.0259,2.0283,2.0288,2.0293,2.0294,2.0228,0,0,0,0,0,2.0387,2.0387,2.0365,2.0377,2.0373,2.0351,2.0349,2.0334,2.0323,2.0318,2.0304,2.0294,2.0291,2.029,2.0286,2.03,2.0295,2.0308,2.0313,2.0317,2.0318,2.0323,2.0328,2.0274,2.0274,2.0274,0,0,2.0407,2.0393,2.0395,2.0384,2.0375,2.0375,2.0347,2.0349,2.0349,2.0319,2.0322,2.0312,2.0299,2.0309,2.0312,2.0301,2.0332,2.032,2.0323,2.0322,2.0326,2.0331,2.0335,2.0276,2.0275,2.0275,0,0,2.0444,2.0435,2.0443,2.0434,2.042,2.0405,2.0407,2.0389,2.038,2.0384,2.036,2.036,2.0356,2.0347,2.0342,2.0376,2.0358,2.0376,2.04,2.0405,2.0409,2.0412,2.0422,2.0426,2.0378,2.0378,2.0378,0,2.0471,2.0471,2.0449,2.0452,2.0447,2.042,2.0427,2.042,2.0406,2.0403,2.0391,2.0384,2.0374,2.038,2.0388,2.0386,2.0386,2.0377,2.041,2.0413,2.0416,2.0425,2.0429,2.038,2.038,2.038,2.038,0,2.0504,2.0504,2.0512,2.0498,2.0494,2.05,2.0478,2.0478,2.0463,2.0449,2.0453,2.044,2.0432,2.0433,2.0419,2.0436,2.043,2.0415,2.0393,2.0424,2.0432,2.0435,2.0383,2.0382,2.0382,2.0381,0,0,2.0563,2.0537,2.054,2.0532,2.0515,2.0515,2.0519,2.0511,2.051,2.0502,2.0503,2.05,2.0485,2.048,2.0465,2.047,2.0494,2.0454,2.0453,2.0459,2.051,2.052,2.0524,2.0483,2.0484,2.0484,2.051,0,2.0594,2.0598,2.0579,2.0588,2.0587,2.0561,2.0564,2.0554,2.0542,2.0539,2.0526,2.0523,2.0505,2.0501,2.0505,2.049,2.0504,2.0489,2.0482,2.0482,2.0484,2.0528,2.0539,2.0564,2.0514,2.0514,2.0514,0,2.0631,2.0623,2.0632,2.0613,2.0612,2.0615,2.0605,2.0604,2.0591,2.0582,2.0576,2.0558,2.056,2.0542,2.0543,2.0533,2.053,2.0523,2.0523,2.0519,2.0498,2.0523,2.0572,2.0575,2.052,2.0519,2.0519,0,2.0669,2.0662,2.0666,2.0661,2.064,2.0642,2.0633,2.062,2.0616,2.0609,2.0605,2.0598,2.0594,2.0589,2.0569,2.0558,2.0572,2.0553,2.0563,2.0563,2.0565,2.0565,2.0611,2.0568,2.0568,2.0568,2.0567,0,2.0704,2.071,2.0682,2.0684,2.069,2.0668,2.0674,2.0663,2.0652,2.0651,2.0629,2.0629,2.0605,2.0602,2.0587,2.0589,2.0588,2.058,2.0575,2.058,2.0581,2.0576,2.0572,2.0569,2.0568,2.0568,2.0568,0,2.0747,2.0729,2.0731,2.0711,2.0706,2.0711,2.0694,2.0695,2.0682,2.068,2.0679,2.0658,2.0653,2.0634,2.0625,2.0616,2.0621,2.0615,2.0625,2.0622,2.0632,2.0631,2.0675,2.0678,2.0636,2.0636,2.0636,0,2.0769,2.0773,2.0753,2.0751,2.0743,2.074,2.0736,2.0715,2.0711,2.0697,2.07,2.0693,2.0686,2.068,2.0664,2.0656,2.0647,2.0663,2.0646,2.065,2.0645,2.0643,2.0643,2.0666,2.0667,2.0667,2.0668,0,2.0809,2.08,2.0795,2.0786,2.0782,2.0774,2.0765,2.0765,2.0741,2.0739,2.0733,2.0728,2.0718,2.0711,2.0701,2.0692,2.0675,2.0674,2.0675,2.0679,2.0684,2.0679,2.0632,2.0672,2.0672,2.0671,2.0671,2.0671,2.084,2.0842,2.0828,2.0822,2.0814,2.0806,2.0805,2.0792,2.0787,2.0777,2.0765,2.0761,2.0748,2.0733,2.0725,2.0721,2.0712,2.0715,2.0715,2.0716,2.0717,2.0687,2.072,2.0719,2.0719,2.0719,2.0719,0,2.0877,2.0867,2.0862,2.085,2.0846,2.0832,2.0821,2.0818,2.0814,2.0804,2.0798,2.0791,2.0784,2.0768,2.076,2.0759,2.0752,2.0758,2.0756,2.0754,2.0727,2.0725,2.0764,2.0764,2.0764,2.0764,2.0764,2.0764,2.0895,2.0896,2.0886,2.0882,2.0872,2.0867,2.0862,2.0854,2.0846,2.0839,2.0833,2.0823,2.081,2.08,2.0793,2.0789,2.0785,2.0794,2.0786,2.0761,2.0756,2.0752,2.075,2.0794,2.0794,2.0813,2.0814,2.0814]}]]